Regional Weather Roundup
Issued by NWS

Home | Current Version | Previous Version | Text Only | Print | Product List | Glossary Off
Versions: 1 2 3 4 5 6 7 8 9 10 11 12 13 14 15 16 17 18 19 20 21 22 23 24 25 26 27 28 29 30 31 32 33 34 35 36 37 38 39 40 41 42 43 44 45 46 47 48 49 50

000
ASUS43 KDTX 250810
RWRMI
MICHIGAN HOURLY REGIONAL WEATHER ROUNDUP
NATIONAL WEATHER SERVICE DETROIT/PONTIAC MI
400 AM EDT FRI APR 25 2014

NOTE: "FAIR" INDICATES FEW OR NO CLOUDS BELOW 12,000 FEET WITH NO
SIGNIFICANT WEATHER AND/OR OBSTRUCTION TO VISIBILITY.

MIZ047>049-052>055-059>063-066>070-074>076-081>083-250900-
SOUTHEAST LOWER MICHIGAN

CITY           SKY/WX    TMP DP  RH WIND       PRES   REMARKS
ADRIAN         CLOUDY    44  32  62 E9        29.73F
ALMA           CLOUDY    43  26  51 E7        29.76F
ANN ARBOR      CLOUDY    45  22  40 E9        29.75F
BAD AXE        CLOUDY    42  26  53 E7        29.83F
CARO           CLOUDY    45  24  43 E8        29.79F
DETROIT CITY   CLOUDY    48  31  51 E9        29.79F
DETROIT        CLOUDY    47  23  38 NE7       29.77F
FLINT          CLOUDY    47  21  35 SE12      29.77F
GROSSE ILE     MOCLDY    46  27  46 E8        29.75F
HILLSDALE      CLOUDY    46  30  53 E9        29.71F
HOWELL         CLOUDY    46  21  37 E10       29.74F

CITY           SKY/WX    TMP DP  RH WIND       PRES   REMARKS
JACKSON        CLOUDY    44  25  47 E7        29.73F
LAMBERTVILLE   CLOUDY    46  36  66 E7        29.73F
LANSING        CLOUDY    46  20  35 E9        29.74F
LAPEER         FAIR      44  19  37 SE7       29.78F
MASON          CLOUDY    45  23  41 E6        29.73F
MONROE         CLOUDY    46  34  61 E10       29.73F
MT. CLEMENS    CLOUDY    45  27  50 E10       29.79F
PONTIAC        CLOUDY    45  23  42 E10       29.76F
PORT HOPE        N/A     41  34  76 E14       29.84F
PORT HURON     CLOUDY    45  23  42 E7        29.81F
TRI CITIES     CLOUDY    44  28  53 E10       29.79F
TROY           CLOUDY    45  26  47 E8        29.80F
SAGINAW HB     CLOUDY    43  30  61 E6        29.78F
YPSILANTI      CLOUDY    48  23  37 E8        29.76F
$$
MIZ043>046-050>051-056>058-064>065-071>073-077>080-250900-
SOUTHWEST LOWER MICHIGAN

CITY           SKY/WX    TMP DP  RH WIND       PRES   REMARKS
BATTLE CREEK   LGT RAIN  45  31  58 E8        29.70F
BENTON HARBOR  CLOUDY    47  36  65 SE8       29.66R
BIG RAPIDS     LGT RAIN  42  29  59 E8        29.75F
COLDWATER      RAIN      47  31  54 E3        29.72S
FREMONT        LGT RAIN  41  34  76 E8        29.73F
HOLLAND        LGT RAIN  44  37  76 E12       29.71R
GRAND RAPIDS   RAIN      43  34  70 E10       29.72F
IONIA          CLOUDY    45  27  49 E5        29.74S
KALAMAZOO      CLOUDY    46  32  58 E8        29.68F
LUDINGTON      MIX PCPN  40  36  87 SE13G18   29.70F WCI  32
MARSHALL       LGT RAIN  44  29  55 CALM      29.73S
MOUNT PLEASANT CLOUDY    42  28  58 NE6       29.77F
MUSKEGON       LGT RAIN  43  36  76 E9        29.72S
SOUTH HAVEN    CLOUDY    45  35  67 E6        29.66S
$$
MIZ016>042-250900-
NORTHERN LOWER MICHIGAN

CITY           SKY/WX    TMP DP  RH WIND       PRES   REMARKS
ALPENA         CLOUDY    39  24  55 SE13      29.87F WCI  31
BEAVER ISLAND  CLOUDY    37  26  63 E7        29.81S WCI  32
BELLAIRE       LGT RAIN  42  24  48 CALM      29.77F
CADILLAC       LGT RAIN  39  28  64 E13       29.74F WCI  32
CHARLEVOIX     CLOUDY    42  19  40 E9        29.81F
FRANKFORT      MIX PCPN  39  34  81 E8        29.71F WCI  34
GAYLORD        CLOUDY    40  17  39 E8G18     29.79F WCI  34
GRAYLING       CLOUDY    38  17  42 E9        29.79F WCI  32
HARBOR SPRINGS CLOUDY    42  18  38 E13       29.79F
HOUGHTON LAKE  CLOUDY    41  23  48 E8        29.79F
MANISTEE       CLOUDY    39  34  81 SE9       29.71F WCI  33
OSCODA         CLOUDY    41  30  65 E8        29.85F
PELLSTON       CLOUDY    41  17  38 E13G18    29.82F
ROGERS CITY    CLOUDY    39  26  61 SE9G17    29.88F WCI  33
TRAVERSE CITY  LGT RAIN  42  27  55 E8        29.74F
$$
MIZ007>008-015-250900-
EASTERN UPPER MICHIGAN

CITY           SKY/WX    TMP DP  RH WIND       PRES   REMARKS
KINROSS        CLOUDY    37  30  75 E20       29.85F WCI  27
MACKINAC ISLAN CLOUDY    35  28  78 E13G22    29.83F WCI  26
NEWBERRY       CLOUDY    33  30  88 E12       29.82S WCI  25
S. S. MARIE    CLOUDY    36  30  79 E9        29.87F WCI  29
MUNISING         N/A     35  31  85 VRB7      29.78F WCI  29
$$
MIZ004>006-011>014-085-250900-
CENTRAL UPPER MICHIGAN

CITY           SKY/WX    TMP DP  RH WIND       PRES   REMARKS
MANISTIQUE     FLURRIES  36  29  76 SE13G22   29.81S WCI  28
ESCANABA       CLOUDY    34  30  86 E16       29.76S WCI  23
MENOMINEE      CLOUDY    37  34  87 E8        29.72S WCI  31
SAWYER-GWINN   LGT SNOW  34  32  93 SE9       29.74S WCI  26
$$
MIZ001>003-009>011-084-250900-
WESTERN UPPER MICHIGAN

CITY           SKY/WX    TMP DP  RH WIND       PRES   REMARKS
IRON MOUNTAIN  LGT SNOW  33  32  96 SE6       29.70F FOG     WCI  28
HOUGHTON       SNOW      32  30  92 E20G26    29.73F VSB 1/2 WCI  20
COPPER HARBOR    N/A     35  32  88 S13G23    29.78F WCI  26
IRONWOOD       CLOUDY    37  34  87 S12       29.60F WCI  30
$$

ABBREVIATIONS USED IN REMARKS
   TC - TEMPERATURE IN CELSIUS
  WCI - WIND CHILL INDEX
   HX - HEAT INDEX
  VSB - VISIBILITY




USA.gov is the U.S. government's official web portal to all federal, state and local government web resources and services.